sat.trackr.live / text

‹ back to catalog

STARLINK-3139

NORAD 49425 · 2021-104T

PAYLOAD ACTIVE UNKNOWN

§ Identity

Operator
Country
US
Launch date
2021-11-13
Launch site
AFETR
Launch vehicle
Mass (kg)
RCS (m²)

Purposes: comms

External: N2YO · Heavens-Above · Gunter

§ Orbital elements

Epoch: 2026-09-15T13:11:16.402560Z

Period
94.01 min
Inclination
53.1608°
Eccentricity
0.0001144
Mean motion
15.31704097 rev/d
Perigee alt
469.9 km
Apogee alt
471.5 km
Semi-major
6,848.9 km
B*
1.5121e-5
RAAN
83.8803°
Arg perigee
94.3455°
Mean anomaly
265.7678°
Rev number
26,747

§ Raw data

STARLINK-31391 49425U 21104T   26258.54949540  .00000104  00000+0  15121-4 0  99932 49425  53.1608  83.8803 0001144  94.3455 265.7678 15.31704097267473

JSON: /api/v1/satellites/49425 · /tle

For live sub-satellite position, see the globe view (requires WebGL).

§ Visibility from observer

Set your observer location to see the next 7 days of passes ≥ 10°. The values pass through the URL so the page stays shareable.

No JS? Fill the form by hand. The geolocation button needs JavaScript.